This demonstration page uses our WeatherBlox Daily Observations layout. Learn more.

Hourly Observations for August 11, 2016

Temp ( °F °C ) Dew Point ( °F °C ) Humidity (%) Winds ( mph kmh ) Pressure ( in mb ) Visibility ( mi km ) Precip ( " mm )
12:54 am 00:54 Clear 82 27.8 74 23.3 77 77 S 13 20 29.82 1010 10 16.0934 0 0
1:54 am 01:54 Clear 81 27.2 72 22.2 74 74 S 13 20 29.81 1009 10 16.0934 0 0
2:54 am 02:54 Clear 80 26.7 71 21.7 74 74 S 13 20 29.8 1009 10 16.0934 0 0
3:54 am 03:54 Clear 80 26.7 71 21.7 74 74 S 13 20 29.79 1009 10 16.0934 0 0
4:54 am 04:54 Clear 79 26.1 72 22.2 79 79 S 12 19 29.79 1009 10 16.0934 0 0
5:54 am 05:54 Clear 79 26.1 72 22.2 79 79 S 14 22 29.78 1009 10 16.0934 0 0
6:54 am 06:54 Sunny 79 26.1 72 22.2 79 79 S 12 19 29.79 1009 10 16.0934 0 0
7:54 am 07:54 Sunny 81 27.2 73 22.8 77 77 S 15 24 29.77 1008 10 16.0934 0 0
8:54 am 08:54 Sunny 84 28.9 72 22.2 67 67 SSW 14 22 29.79 1009 10 16.0934 0 0
9:54 am 09:54 Sunny 86 30 72 22.2 63 63 VRB 6 9 29.81 1010 10 16.0934 0 0
10:54 am 10:54 Sunny 88 31.1 74 23.3 63 63 SSW 9 15 29.79 1009 10 16.0934 0 0
11:54 am 11:54 Sunny 91 32.8 74 23.3 57 57 SSW 13 20 29.78 1008 10 16.0934 0 0
12:54 pm 12:54 Sunny 92 33.3 75 23.9 58 58 S 15 24 29.77 1008 10 16.0934 0 0
1:54 pm 13:54 Sunny 94 34.4 76 24.4 56 56 S 14 22 29.75 1008 10 16.0934 0 0
2:54 pm 14:54 Sunny 95 35 76 24.4 54 54 S 12 19 29.75 1008 10 16.0934 0 0
3:54 pm 15:54 Sunny 95 35 75 23.9 53 53 S 15 24 29.74 1007 10 16.0934 0 0
4:54 pm 16:54 Sunny 96 35.6 74 23.3 49 49 SSW 16 26 29.74 1007 10 16.0934 0 0
5:54 pm 17:54 Sunny 95 35 75 23.9 53 53 SSW 9 15 29.71 1006 10 16.0934 0 0
6:54 pm 18:54 Partly Cloudy 94 34.4 77 25 58 58 WNW 7 11 29.7 1006 10 16.0934 0 0
7:40 pm 19:40 Mostly Cloudy with Nearby Thunderstorms 90 32 75 24 63 63 NW 12 19 29.65 1004 10 16.0934 0 0
7:54 pm 19:54 Mostly Cloudy with Thunderstorms 88 31.1 76 24.4 68 68 NNW 8 13 29.71 1006 10 16.0934 0 0
8:24 pm 20:24 Cloudy with Heavy Thunderstorms 79 26 73 23 84 84 W 21 33 29.74 1007 3 4.82802 0 0
8:27 pm 20:27 Cloudy with Heavy Thunderstorms 77 25 73 23 89 89 WNW 13 20 29.74 1007 1.75 2.816345 0 0
8:46 pm 20:46 Cloudy with Heavy Thunderstorms 72 22.2 71 21.7 97 97 W 28 44 29.8 1009 0.75 1.207005 0.4 10.16
8:52 pm 20:52 Cloudy with Heavy Thunderstorms 73 23 72 22 94 94 W 16 26 29.8 1009 1 1.60934 0 0
8:54 pm 20:54 Cloudy with Heavy Thunderstorms 73 22.8 71 21.7 94 94 W 15 24 29.81 1010 1.5 2.41401 0.65 16.51
8:58 pm 20:58 Cloudy with Thunderstorms 73 23 72 22 94 94 WNW 14 22 29.8 1009 3 4.82802 0 0
9:26 pm 21:26 Mostly Cloudy with Nearby Thunderstorms 73 23 72 22 94 94 N 12 19 29.8 1009 10 16.0934 0 0
9:42 pm 21:42 Mostly Cloudy with Thunderstorms 74 23.3 71 21.7 91 91 NNE 7 11 29.77 1008 7 11.26538 0.05 1.27
9:54 pm 21:54 Mostly Cloudy with Light Thunderstorms 74 23.3 72 22.2 94 94 NNE 13 20 29.79 1009 8 12.87472 0.07 1.778
10:06 pm 22:06 Mostly Cloudy with Light Rain 73 23 72 22 94 94 NE 7 11 29.77 1008 10 16.0934 0 0
10:54 pm 22:54 Mostly Clear with Light Rain 74 23.3 72 22.2 94 94 E 6 9 29.8 1009 10 16.0934 0.01 0.254
11:24 pm 23:24 Mostly Cloudy 75 24 73 23 94 94 ENE 5 7 29.77 1008 10 16.0934 0 0
11:32 pm 23:32 Mostly Cloudy 75 24 73 23 94 94 ESE 5 7 29.77 1008 10 16.0934 0 0
11:54 pm 23:54 Cloudy 74 23.3 73 22.8 97 97 ENE 3 6 29.78 1009 10 16.0934 0 0.0254

Powered by AerisWeather